User: anonymous   Login
Location: Unspecified
(0.0000°N, 0.0000°E)
Time: 19:21:28
(UTC+00:00)
Language:

STARLINK-5027 - Orbit

View from above orbital plane
View from above orbital plane
View from above satellite
View from above satellite

Ground track
Ground track

The orbit is defined by the following mean orbital elements,

1 55370U          26145.64213900 +.00000000 +00000-0 +43999-4 0 00004
2 55370  43.0037 246.8116 0001467 280.8073  79.2614 15.27578214    04
Epoch (UTC): 25 May 2026 15:24:40
Eccentricity: 0.0001467
inclination: 43.0037°
perigee height: 482 km
apogee height: 484 km
right ascension of ascending node: 246.8116°
argument of perigee: 280.8073°
revolutions per day: 15.27578214
mean anomaly at epoch: 79.2614°

The dashed part of the orbit path shows where the satellite is in the earth's shadow,  

DLR